Weather in Smishlyaevka

Russia / Samara Oblast     53°15′10″N   50°23′32″E
temp.,
°C
wind,
m/s
gust,
m/s
humid.,
%
clouds,
%
prec.,
mm/h
press.,
hPa
HPBL,
m
23 october, sat
sat2301:00+10wsw613795 0.0 1008419
04:00+9wsw512885 0.0 1010324
07:00+8sw411925 0.0 1010275
10:00+11sw5117445 0.0 1012475
13:00+14wsw71359100 0.0 10121444
16:00+14wsw6115180 0.0 10131318
19:00+11wsw3853100 0.0 1014160
22:00+11sw2256100 0.0 101340
24 october, sun
sun2401:00+9nnw2376100 0.5 1012136
04:00+8ne1293100 7.1 1010154
07:00+8w3791100 0.3 1010544
10:00+9w587512 0.5 1012762
13:00+10w67566 0.0 10141283
16:00+10w57575 0.0 10141311
19:00+7w356932 0.0 101597
22:00+6w2272100 0.0 101528
25 october, mon
mon2501:00+5sw1175100 0.0 101511
04:00+5ssw2276100 0.0 101523
07:00+4wsw3477100 0.0 101482
10:00+4wnw4693100 0.1 1015619
13:00+4wnw5886100 0.1 1016786
16:00+4nw51094100 0.4 1018703
19:00+3n8128168 0.1 1021810
22:00+1nnw612670 0.1 1024647
26 october, tue
tue2601:000nnw497714 0.0 1026319
04:00−1nw377999 0.0 1027202
07:00−1wnw22775 0.0 102817
10:00+3wsw46609 0.0 1028480
13:00+5wsw694261 0.0 1026834
16:00+5wsw6114463 0.0 1025827
19:00+4wsw6125145 0.0 1025501
22:00+3wsw5116028 0.0 1025320
27 october, wed
wed2701:00+2wsw596756 0.0 1025239
04:00+1wsw49725 0.0 1024222
07:000wsw4107317 0.0 1024234
10:00+3wsw61159100 0.0 1024380
13:00+7wsw71146100 0.0 1024589
16:00+8sw6124591 0.0 1022646
19:00+5sw61349100 0.0 1022404
22:00+4sw6134992 0.0 1021386